CAPE
1533 1448 1047 1653 1802 1898 1975 2127 2198 2230 2153 2070 2090 2346 2418 2361 2253 2090 1956 1884 1851 1798 1741 1673 1672 1606 1603 1557 1451 1424 1359 1342 1341 1238 1024 1127 1289 1453 1763 1682 1578 1464 1358 1325 1423 1405 1712 1915 1788 1544 1191 1041 950 827 812 929 922 876 855 957 910 977 1050 1376 1375 1458 1391 974 520 160 325 493 196 198 104 74 135 126 86 24 1 2 0 3 8
1998 1277 1055 1279 1721 1834 1819 1941 2220 2262 2158 2140 2269 2240 1919 2058 2176 2148 2032 1975 1939 1845 1789 1751 1729 1688 1562 1564 1427 1408 1446 1412 1359 1272 1198 1148 1213 1311 1395 1427 1368 1258 1118 1020 1094 1568 1704 1711 1561 1396 1152 854 749 686 871 793 1049 1248 1294 1410 1252 1169 1110 1044 907 781 768 801 504 430 506 482 194 98 31 46 522 288 52 0 0 0 0 12 14
1544 1304 1177 1172 1726 1706 1857 1923 2157 2237 2206 2228 2262 1892 2084 2084 2123 2083 2144 2086 1988 1910 1920 1873 1809 1725 1604 1468 1499 1542 1564 1511 1391 1407 1359 1263 1204 1203 1120 1172 1385 1184 1028 654 895 1646 1686 1484 1357 1336 1282 1081 1019 973 819 902 1318 1709 1744 1865 1844 1772 1605 1119 951 1026 947 730 440 492 80 68 105 174 430 496 482 346 83 0 3 4 4 8 11
1461 1412 1188 1707 1678 1725 1889 1963 2021 2102 2125 2094 1920 1675 1756 2271 2289 2194 2158 2010 1861 1957 1897 1764 1737 1624 1564 1614 1598 1552 1613 1559 1452 1374 1349 1344 1269 1117 1032 1195 1244 919 541 540 822 939 1037 1102 1246 1359 1349 1170 937 824 743 1102 966 1543 1556 1602 1595 1673 1378 1324 1067 773 990 830 534 257 359 225 470 584 515 407 559 477 98 6 1 4 7 8 10
1432 1233 1211 1401 1449 1746 1750 1843 1914 2000 2007 1874 1651 1515 1704 1880 1809 1812 1746 1776 1910 1899 1809 1804 1697 1590 1677 1726 1710 1670 1688 1596 1470 1354 1283 1379 1316 1115 1030 1036 926 854 801 837 1029 1029 1009 887 1285 1357 1135 997 1001 867 715 1040 1176 1212 1330 1525 1531 1473 1396 1303 1308 1233 660 644 691 1221 440 335 347 502 364 227 527 491 115 0 3 4 3 2 7
1136 1154 624 654 1109 1540 1722 1741 1836 1856 1809 1710 1569 1649 2113 1953 1858 1841 1973 2052 1943 1890 1867 1830 1680 1714 1798 1744 1745 1743 1711 1641 1503 1387 1336 1344 1379 1234 1054 1074 979 912 875 1141 1125 1101 948 1012 1189 1077 1027 1006 995 730 671 758 872 1095 1214 1237 1385 1445 1438 1179 1427 1385 1576 1037 1203 1349 634 431 249 103 293 463 328 520 461 171 7 42 18 6 3
1203 932 638 676 1058 1337 1764 1687 1770 1730 1714 1686 1806 2202 2172 2067 2092 2042 2031 2009 1941 1906 1882 1816 1772 1765 1816 1823 1786 1704 1739 1670 1556 1398 1288 1228 1326 1365 1134 1054 1058 964 865 910 1154 1042 912 878 1046 971 1058 1048 806 720 834 812 958 949 1052 1138 1332 1322 1248 1271 663 1350 1012 1288 1910 547 639 496 257 299 496 367 116 324 480 261 55 10 5 3 1
1210 829 601 658 908 1610 1708 1628 1662 1706 1810 2040 2177 2229 2242 2192 2185 2172 2116 2059 1996 1945 1886 1851 1868 1864 1809 1879 1804 1652 1549 1506 1370 1337 1282 1216 1150 1236 1348 1126 1080 946 868 775 786 1000 960 1005 980 1062 1169 988 818 742 861 965 980 1047 1108 948 1203 1154 1006 1040 956 1218 1174 1521 1051 903 892 749 541 358 380 289 334 440 390 302 132 60 40 7 2
1251 754 628 712 1092 1335 1591 1592 1640 1754 1844 2092 2180 2244 2226 2209 2130 2110 2110 2099 2041 1989 2003 2015 1868 1832 1837 1782 1683 1575 1472 1388 1355 1348 1424 1473 1565 1366 1378 1171 1136 1049 958 999 1026 1132 966 992 1037 1274 1123 1011 772 857 941 1067 1166 1033 992 940 1138 1078 1161 933 1202 1184 1372 1198 746 847 961 660 552 331 449 448 392 462 529 434 64 1 5 5 2
1538 932 688 1125 1174 1620 1596 1567 1658 1820 1889 2154 2240 2263 2202 2131 2080 2114 2117 2056 2061 2082 2049 2010 1925 1909 1866 1753 1676 1604 1512 1368 1383 1617 1743 1674 1721 1649 1118 1039 980 965 888 823 778 936 1111 1121 1047 1092 1191 907 786 989 1062 1028 1013 961 872 877 934 980 1025 1228 1348 1454 1649 950 998 1057 1244 1394 467 343 230 219 221 266 477 334 253 157 43 6 2
1600 1098 928 1203 1168 1444 1530 1662 1701 1822 1972 2213 2192 2227 2266 2270 2233 2186 2206 2166 2147 2116 2116 2073 2044 1915 1792 1763 1696 1589 1371 1385 1408 1182 1530 1640 1567 1547 1306 1070 1068 1058 1026 1014 907 924 1024 1000 1029 1239 1135 902 1020 1092 1050 1080 1064 938 961 998 994 1034 994 1145 1126 1340 802 112 289 504 523 902 457 259 246 278 453 322 414 530 431 169 0 4 6
1408 1398 1615 1136 1511 1382 1514 1679 1778 1848 2051 2186 2220 2267 2192 2269 2264 2200 2186 2230 2225 2194 2186 2107 1957 1805 1773 1636 1657 1546 1455 1233 782 1123 1396 1672 1512 1496 1337 1124 1139 1125 1092 1072 1012 940 972 1039 1240 1210 1102 1069 1070 1060 1078 1057 1004 1083 1019 886 860 886 792 932 1043 854 747 1458 1087 907 876 561 395 454 865 900 833 568 524 646 382 188 23 0 2
1278 1721 1632 1504 1319 1328 1524 1664 1842 1926 2012 2154 2226 2266 2064 2040 2124 2069 2036 2046 2123 2210 2246 2117 1971 1899 1737 1597 1396 1429 1382 1200 1092 968 1331 1220 1194 1190 1310 1264 1162 1191 1129 1094 1076 1093 1178 1344 1321 1233 1111 1147 1119 1146 1142 1039 1015 1094 1026 929 919 906 1078 1029 1175 756 764 825 786 882 916 444 446 666 842 743 732 976 869 760 433 190 92 31 10
1300 1665 1445 875 1503 1634 1509 1629 1742 1874 1914 1953 1997 1922 1892 1881 1944 2028 2030 2039 2183 2259 2232 2214 1998 1760 1738 1614 1627 1603 1392 1227 1320 1305 1131 1173 827 1166 1183 1190 1182 1158 1112 1153 1231 1315 1442 1425 1356 1209 1086 1122 1235 1157 1054 1166 1045 937 985 984 820 1096 1045 1350 1612 860 929 880 786 883 972 684 528 539 634 789 595 506 510 495 416 186 79 52 7
1310 1642 1144 1342 1505 1539 1750 1562 1599 1574 1522 1689 1831 1877 1833 1840 1906 1913 1949 2081 2122 2184 2194 2116 1886 1606 1674 1765 1690 1523 1528 1447 1234 1201 1360 1131 1110 1235 1254 1132 1090 1099 1054 1036 1112 1220 1262 1215 1067 1157 1242 1242 1128 1051 1036 1110 1042 980 903 1168 948 1244 1112 1010 962 917 820 828 934 689 513 529 726 579 477 483 435 409 395 312 287 254 197 83 20
1193 1410 1068 972 1348 1632 1698 1784 1705 1708 1686 1600 1557 1616 1561 1623 1630 1751 1791 1789 1957 1970 2033 1783 1862 1715 1898 1867 1773 1718 1635 1546 1351 1347 1198 1130 1336 1383 1351 1246 1061 1135 1215 1146 1090 1124 1124 1152 1200 1084 1148 1048 1023 1107 1287 1308 1220 1140 1103 1182 1369 1243 1405 1717 1256 926 963 665 746 907 498 606 962 586 516 476 453 476 396 359 261 376 302 93 11
1327 1136 1112 972 689 1476 1592 1508 1982 1603 1387 1352 1509 1462 1494 1306 1301 1376 1434 1613 1706 1563 1566 1890 1968 1829 1992 1987 1978 1814 1668 1500 1430 1164 1261 1365 1590 1389 1393 1258 1114 1183 1199 1232 1309 1290 1208 1144 985 1014 981 855 935 1080 1173 1205 1299 1360 1091 1107 1166 1243 1357 1618 1345 861 890 816 1078 814 735 527 959 519 502 483 469 526 362 304 517 567 291 116 23
890 1115 1888 819 1258 1281 1372 1229 1280 1313 1156 1376 1508 1361 1185 948 924 1207 1479 1761 1619 1803 1878 1987 2054 2180 2143 2107 1974 1793 1638 1442 1258 1006 1483 1582 1638 1472 1327 1299 1217 1237 1354 1406 1266 1113 948 887 950 920 852 964 816 968 1148 1215 1196 1380 1090 930 1151 1269 1212 1730 836 1089 866 870 647 1000 523 992 930 513 515 488 530 404 394 387 417 433 346 190 45
939 927 1061 1069 898 1474 1948 1414 1168 1003 913 999 1015 1042 731 563 645 915 1258 1781 1655 1502 1780 2058 2205 2203 2136 2064 1985 1869 1719 1467 1455 1378 1527 1802 1686 1413 1273 1248 1244 1301 1367 1178 966 924 937 893 952 954 884 1000 911 850 1034 977 1225 1128 1310 1112 1099 1285 1463 1311 999 658 1165 912 741 690 622 1038 633 510 547 562 551 510 487 447 594 549 352 250 210
738 906 919 990 1242 1152 1169 1241 829 698 999 994 704 723 736 626 673 1141 1262 1602 1755 2006 2173 2216 2261 2172 1932 2068 2051 2030 1793 1732 1542 1548 1415 1641 1678 1399 1365 1370 1268 1322 1208 1016 867 854 843 879 845 890 958 875 1008 1034 1007 1126 1154 1354 1250 1371 1193 1450 1370 1582 987 472 464 582 818 650 1244 1140 1228 521 566 583 563 512 488 613 603 546 445 254 158
806 886 866 1007 1062 1173 1240 1138 1285 1126 999 1674 1089 1004 963 1016 1058 1386 1506 1697 1867 1827 2118 2011 1971 1824 2013 2076 1897 969 825 1072 1337 1075 1671 1427 1666 1633 1478 1343 1172 1296 1147 1028 959 823 812 887 908 821 859 1043 851 977 1117 1172 1425 1300 1351 1340 1314 1327 1220 1018 548 778 342 583 651 608 1269 1152 947 666 547 515 497 475 604 615 523 553 680 513 366
1098 859 1034 932 1047 1164 930 827 1183 1343 1153 1691 1623 930 949 984 1025 1123 1183 1536 1780 1951 1886 1540 1326 1672 1644 1935 1702 1685 790 1041 1275 1176 900 1543 1623 1604 1416 1240 1187 1175 1154 1123 930 870 841 897 1063 1069 923 942 1024 450 822 1331 1370 1385 1330 1627 1719 1128 1130 936 914 345 480 925 648 1071 1247 1353 700 701 490 414 403 454 475 478 628 742 717 628 539
924 874 1205 1210 1103 1123 1007 836 1335 1131 1462 637 571 1129 887 1818 1030 1247 1287 1378 1438 1574 1390 1199 1039 1056 1412 1266 1868 2038 1363 1491 1242 934 897 822 1122 1474 1495 1337 1212 1225 1149 1172 1074 952 916 745 810 816 1278 868 583 488 414 616 1326 1686 1704 1686 1480 1159 1161 934 648 622 410 817 640 1256 1228 1312 1046 756 587 360 350 525 590 668 969 888 771 633 411
1134 937 998 1166 1087 1058 810 767 1025 953 1015 827 1263 1095 1482 1522 1245 1365 1407 1266 954 774 958 897 1012 863 487 1344 1281 839 1093 1152 1308 1365 776 1024 1576 1514 1384 1147 1154 1263 1279 1230 1164 1099 974 931 731 828 769 518 453 313 435 848 713 794 1180 1021 935 1180 743 536 858 752 494 630 592 1185 1266 1295 1013 756 709 574 354 332 559 970 969 907 771 689 494
1162 1118 1292 1126 1117 1239 1462 912 1710 941 994 868 1011 1059 646 1558 1174 1284 1383 1314 582 583 669 698 1326 1420 907 852 844 879 563 634 1071 1404 1042 1109 956 937 1027 855 872 931 1278 686 808 819 837 404 281 436 535 523 426 402 452 965 1153 865 858 990 1070 999 961 537 936 552 536 782 1068 1217 1310 1300 1173 657 647 620 476 289 552 1130 998 827 705 570 522
1155 1126 1201 895 1116 1045 1624 891 799 1601 1304 750 701 938 969 1412 1450 1298 1422 1429 1164 1067 1096 1016 1619 1838 1074 636 597 828 1162 1186 1431 1146 897 666 1360 940 470 1320 426 621 961 933 1067 654 338 278 334 374 564 524 443 367 552 859 1074 1120 1019 1288 1179 919 815 733 662 1088 591 574 1112 1364 1364 1409 1161 772 641 618 538 460 522 1101 948 772 517 420 468
967 1200 992 1026 1020 1489 1229 984 614 708 1150 997 804 844 880 1007 842 980 1177 1141 1075 1458 1038 944 1553 1577 1413 897 831 641 992 1178 1134 902 689 407 777 1511 1705 1038 1564 1442 932 1370 898 465 930 978 712 498 654 655 468 371 405 644 982 896 940 720 1058 809 915 961 945 986 804 427 956 1268 1247 1352 1430 1204 958 620 628 594 505 878 438 370 268 281 756
1124 1067 1218 1277 1050 1475 1640 1947 1446 673 880 1011 955 1237 1349 1558 1510 1337 1455 1428 1762 1424 1350 1298 1338 1211 982 1023 1058 1407 1486 1465 1442 1127 640 661 1080 1203 1072 632 663 1132 1275 1038 797 610 716 888 500 539 393 458 427 406 332 547 685 988 926 1005 883 809 855 981 1016 1161 828 593 596 1141 1247 1337 1267 1264 1043 798 679 597 533 511 372 399 202 240 753
1250 1049 1038 1446 1340 1548 1810 809 722 882 1436 1136 1346 1332 1148 1243 1402 1371 1621 1566 1900 1891 1779 1690 1789 1819 1442 1414 1008 1364 932 990 1149 1222 985 989 1665 1239 632 613 375 1043 595 1130 425 472 592 378 506 408 435 395 325 414 297 439 679 791 946 830 829 768 751 635 1192 970 875 879 476 1058 1334 1219 1323 1254 1258 950 706 624 627 588 484 386 363 120 696
996 924 1271 1506 1003 1425 1398 1356 1181 632 965 1113 1127 1303 1338 1300 1271 1324 1422 1394 1414 1661 1986 1832 2122 1558 1654 1423 943 939 1540 1489 840 684 909 789 873 462 826 944 1499 1264 966 1104 1086 756 673 886 455 389 215 432 317 275 225 398 580 710 683 619 922 1286 832 1032 918 1015 875 966 515 1023 1417 1461 1449 1396 1286 1083 984 846 657 582 614 521 384 215 306
1205 980 1366 802 1256 1110 1112 1008 1120 1380 1237 1016 1287 1347 1364 1475 1225 1572 1441 1576 1609 1519 1692 1752 1679 1766 1829 1179 1025 782 1233 1594 1238 792 1419 1497 1392 848 1101 1402 1663 879 917 1046 1032 993 824 701 598 473 443 511 440 109 281 350 578 620 678 325 597 1280 588 960 777 1023 790 1127 901 562 1171 1453 1437 1344 1117 1144 1148 993 920 693 572 512 502 340 286
1126 1052 988 1370 1174 1005 718 983 1028 1365 1384 1214 1324 1230 1435 1490 1546 1717 1694 1514 1660 1708 1380 1432 1431 1665 1365 1141 909 623 860 1486 1238 1420 1886 1354 1400 1141 1458 1298 1100 825 1019 936 1247 1046 890 660 627 790 685 555 377 320 341 385 492 470 338 387 544 632 830 664 805 1038 1040 1159 888 749 692 851 1440 1264 1263 1250 1126 1169 1092 1123 778 396 379 278 370
1089 995 992 872 1006 1325 1240 1108 1246 1029 1109 967 884 1233 1467 1083 1680 1631 1848 1733 1687 1470 1416 1527 1501 1259 1285 926 930 1022 960 913 1567 1620 1667 1269 886 1538 1462 1145 845 504 477 1133 1174 1195 1213 1091 1021 321 641 545 368 357 272 165 555 447 485 489 650 510 343 426 1329 1065 1231 1332 1156 1014 1410 1102 962 1465 1352 1136 1312 1297 1203 1254 988 1046 733 502 389
1040 1342 800 1153 936 808 1236 1426 1268 1180 1465 1252 1421 1496 1702 1174 1381 1729 1347 1830 1686 1683 1765 1537 1273 1012 962 1070 945 1018 865 1328 1774 2101 1408 1760 1449 1146 1001 804 486 362 1145 1808 1184 1415 1195 1136 958 912 758 624 721 556 514 534 395 775 462 533 1082 944 907 585 1053 1420 1316 669 1060 932 1083 1305 1300 1144 1190 1506 1276 1160 1315 1209 1243 1394 1385 1259 1175
1215 1331 1224 1458 1122 1150 1378 1116 1044 1024 1132 993 1217 1477 1496 1459 1406 1779 1843 2029 1838 1848 1786 1166 1420 1275 1003 1028 1103 1328 834 1172 877 931 1304 1433 1040 1372 1138 980 1327 1194 926 1174 1301 1582 1236 1128 744 763 821 716 650 684 1349 1112 966 1069 1161 658 843 373 985 1363 904 853 1053 1323 1191 1215 936 777 783 980 1089 1137 1416 1459 1123 1309 1380 1144 1198 1296 1238
1134 1267 1360 1317 1130 1128 1167 1186 1219 1150 1273 1611 1671 1872 1457 1225 1294 1790 1969 2267 1918 1473 1651 1591 1568 1834 1553 1552 1799 1421 1026 870 1151 1020 1142 1024 1123 1438 1198 1075 1133 1358 1287 689 1178 1119 1326 1270 1062 1030 822 698 566 538 1010 1248 1066 1004 1017 1496 1115 748 602 560 478 1583 880 1092 849 1523 1619 1126 733 760 690 1182 1293 1506 1399 1398 1368 1462 1302 1412 1388
1348 905 1257 1367 1032 1130 1267 1835 1261 1344 1376 1426 1442 1150 852 681 979 2107 1707 2136 1515 1293 1453 1432 1701 1647 1545 1519 1226 1124 1083 1085 1329 1374 1117 1227 1582 1604 1117 1235 1410 1218 1350 1014 1016 1116 1477 1670 1582 1268 1044 894 523 464 850 1024 576 813 852 700 1174 841 905 1120 962 1002 401 528 938 709 776 1278 1285 766 837 861 1565 1313 1273 1432 1570 1418 1509 1389 1429
1723 2047 1586 848 695 886 1643 2174 1628 1101 1333 988 1048 967 1548 1263 930 1019 1707 1261 600 715 1391 1158 1209 1356 1397 1086 1260 1366 1695 1806 1381 1107 1461 1047 1102 1142 1481 1214 946 914 1323 1212 1150 1515 1506 1741 1576 1602 1364 1001 695 536 741 679 610 465 680 822 1086 970 1068 1119 918 567 882 878 603 767 874 786 950 1188 1056 1128 1116 1490 1161 654 410 724 915 1038 1337
1735 2376 1356 1350 1239 1488 1721 2088 1370 1139 1432 1896 1556 909 1266 1198 1706 1238 1064 1087 824 822 1217 824 703 914 1555 1444 1517 1306 865 1028 1462 1539 1325 1698 1493 1209 1313 1906 898 992 1342 1399 806 1809 1892 1960 922 1491 1600 1020 1417 1154 1437 996 918 535 819 688 1336 876 898 885 884 847 884 707 392 468 802 1042 986 775 1132 822 1075 1035 1002 956 661 668 789 729 1066
2220 1693 1358 1603 1837 1594 1673 1550 1377 1473 1824 1810 1194 943 762 682 1360 1507 901 682 486 276 321 490 576 754 1110 1601 1611 1735 975 1292 1052 1376 1608 980 1545 1559 1439 986 1206 1268 1384 1365 1182 1489 1758 1745 1932 1436 1546 1092 714 1175 1211 1118 989 742 602 871 1343 916 548 796 876 859 951 639 503 506 668 469 831 860 976 1172 1060 616 964 689 1212 1276 1296 658 741
1476 1357 1816 1713 1919 1968 1800 1856 1476 1871 1733 1548 925 642 691 942 610 585 514 410 221 205 375 549 866 796 1450 1485 1378 1359 1448 1075 1278 1238 1219 1328 1559 1630 1405 1150 931 1050 1060 1721 2093 1399 1457 1935 1795 1580 1470 1287 945 841 951 836 752 732 725 720 703 1042 586 852 1090 1016 781 564 479 486 441 645 653 682 511 528 562 796 687 849 1338 1405 1490 1157 915
1188 1443 1996 1966 1866 1734 1589 1148 1854 1557 1158 1074 1075 1007 818 544 639 480 278 30 16 39 238 584 862 996 1304 1599 1572 1380 1451 1265 1019 1255 1338 1055 1577 1554 1483 1275 648 860 1438 1475 1766 1740 1876 1343 1562 1430 1244 1066 1189 1117 1086 1154 669 690 649 809 938 714 933 782 756 661 594 275 179 134 161 35 0 37 218 259 314 246 91 286 739 1149 1179 992 880
1438 1335 1543 2016 2201 1694 1519 1251 958 1124 1635 1393 933 1437 1128 875 511 307 142 178 399 326 300 496 574 847 1064 1101 1454 1663 1501 1288 1405 1344 769 1328 1374 1484 1347 1558 928 782 1171 1210 1330 2041 1264 1361 1696 1423 1271 1157 999 1190 1283 1052 536 693 956 809 811 706 443 712 393 469 402 333 242 112 34 3 1 0 0 89 257 486 685 550 558 830 711 677 1077
1574 1576 1601 1734 1690 1468 1409 1006 986 886 1404 2008 953 1749 1467 1004 785 582 806 474 199 420 608 559 516 533 744 874 1593 1587 1473 1135 1231 1168 1115 1133 1581 1236 1340 946 1351 708 946 1585 1460 1696 1783 1777 1463 1299 1275 949 829 956 1148 1478 1254 323 525 438 667 454 334 535 299 236 194 73 28 65 29 29 3 2 16 68 77 486 608 742 844 869 538 659 830
1734 1994 1870 1464 1303 1156 1190 968 779 840 1194 1282 2246 1855 1216 1022 749 417 56 290 486 327 381 378 412 308 392 573 638 588 1667 1411 1291 1025 1158 1097 1170 1149 762 739 899 982 848 1020 1637 1534 1431 1546 1556 1576 890 1031 800 1053 1186 1430 1287 777 1156 388 272 452 286 538 321 247 214 52 30 13 1 6 1 5 9 26 100 88 140 227 388 536 968 310 408
2068 1837 1616 1262 1128 1261 1680 1713 1149 1029 926 1880 1886 1144 830 701 499 325 432 490 508 496 390 175 198 259 194 380 316 342 375 429 781 725 1000 1151 1323 1184 1105 1089 1286 1264 746 730 858 1206 1505 1369 1033 1458 1247 1277 982 755 1045 1281 1488 759 1070 545 557 535 126 488 641 376 195 64 14 4 1 0 0 0 0 0 0 0 0 4 25 181 293 660 840
1518 1679 1464 1544 2167 1752 1789 1544 1433 1147 1590 1671 1556 991 852 662 629 595 569 513 506 535 490 471 243 79 106 322 228 354 201 234 257 241 296 217 194 200 189 154 181 445 536 1059 917 1078 1143 866 992 636 648 828 1067 1010 999 1296 1222 1401 817 488 756 1000 797 286 424 215 90 14 4 0 0 0 0 0 0 0 0 0 0 0 1 16 113 186 178
1229 1381 1344 1328 1430 1546 1571 1539 1500 1314 1081 1584 1449 1070 659 888 813 526 344 274 300 229 320 117 22 4 3 0 39 86 136 146 122 79 119 77 91 41 44 41 22 6 10 22 117 110 34 159 656 744 581 570 886 721 778 1118 1244 1120 1274 918 666 772 878 1057 779 229 373 19 0 0 0 0 0 0 0 0 0 0 0 0 0 0 1 10 45
943 931 1066 1139 1115 1210 1230 1519 1658 1790 1840 1472 1353 1125 1042 935 700 487 345 118 42 139 81 7 42 32 14 0 61 74 186 176 147 191 115 93 59 140 116 66 40 17 0 8 113 114 206 1136 1466 1248 881 955 872 1087 1128 1115 1047 1124 1216 1390 1084 943 934 1209 1137 439 213 8 0 0 0 0 0 0 0 0 0 0 0 0 0 0 0 0 0
1327 1236 1166 1240 1278 1268 1347 1327 1446 2042 2433 1970 1917 1360 745 808 535 539 392 68 37 22 42 154 125 94 58 70 0 17 88 258 185 175 90 57 111 144 122 115 97 42 37 35 83 432 614 1055 1337 1437 1301 1442 1121 1200 1137 1046 833 1146 941 1016 892 650 693 588 830 766 66 1 1 0 0 0 0 0 0 0 0 0 0 0 0 0 0 0 0
1276 1320 1374 1443 1390 1494 1291 1292 1458 1362 1948 2367 2085 1583 896 618 598 636 495 205 115 101 66 65 64 89 1 24 49 9 52 158 227 201 86 73 190 161 98 68 99 79 53 37 68 116 710 1371 1421 1496 1454 1246 1087 1180 1024 1087 609 906 691 673 474 392 377 129 369 9 10 2 1 0 0 0 0 0 0 0 0 0 0 0 0 0 0 0 0
Wind_Speed
37 43 42 44 40 40 40 40 39 39 40 39 39 39 40 41 41 41 42 41 41 41 40 39 38 37 34 32 30 29 28 26 24 21 21 21 21 22 22 21 20 20 20 20 19 18 17 16 15 14 13 13 14 14 15 15 16 15 15 15 14 13 13 14 15 17 16 17 16 14 15 14 13 12 12 nan 15 17 nan nan nan nan nan nan nan
40 43 42 42 42 41 42 42 41 40 40 40 39 40 42 41 42 42 42 42 42 41 40 39 39 38 36 34 32 30 28 27 25 22 20 20 20 20 20 20 19 19 18 18 18 17 16 15 15 13 13 13 14 14 14 15 16 15 13 14 14 13 13 13 13 14 15 16 16 16 16 15 13 nan nan nan 17 18 nan nan nan nan nan nan nan
43 43 41 44 43 42 43 42 42 42 41 40 41 43 42 41 42 43 43 42 41 40 39 38 37 37 36 34 32 30 27 26 26 24 22 20 20 20 19 18 18 18 17 16 16 18 16 15 14 14 14 14 14 14 15 15 18 17 15 15 14 13 11 12 12 13 14 14 14 16 nan nan 12 12 14 15 15 17 nan nan nan nan nan nan nan
45 42 42 45 45 44 43 42 42 42 42 42 43 44 44 42 43 43 43 42 41 39 38 38 37 36 34 33 31 29 27 26 25 25 23 20 19 19 18 19 18 17 17 17 15 15 14 14 14 14 14 14 14 14 15 15 15 18 16 15 14 13 12 10 8 9 10 12 13 17 10 11 12 13 13 13 13 14 nan nan nan nan nan nan nan
44 43 44 44 43 44 43 43 42 43 43 43 44 44 44 44 44 43 43 42 41 39 38 38 37 35 33 31 29 27 26 25 25 25 24 22 20 19 18 19 18 17 18 18 16 15 13 14 14 14 14 14 14 14 14 14 15 15 15 15 14 13 11 9 8 9 10 11 11 6 12 11 10 13 11 12 13 13 15 nan nan nan nan nan nan
43 43 44 43 42 44 43 42 43 44 44 44 44 44 42 43 42 42 42 41 40 40 39 38 36 34 32 30 28 27 26 24 24 24 23 22 20 19 19 19 18 18 18 21 18 17 14 14 14 14 14 14 14 14 14 14 14 14 14 14 13 12 7 5 6 6 7 10 13 7 9 10 10 8 11 12 12 14 14 16 nan nan nan nan nan
45 42 43 43 41 43 42 43 43 44 44 44 43 41 42 42 41 42 42 41 40 39 38 37 34 32 30 29 27 27 26 25 24 23 22 22 21 19 20 19 18 17 17 19 19 18 16 14 14 14 14 14 14 14 14 14 14 14 13 13 11 9 5 3 3 7 9 8 9 4 6 10 10 8 11 9 9 12 14 17 nan nan nan nan nan
42 41 42 43 41 44 42 42 43 43 42 40 41 41 42 42 42 42 41 41 40 39 37 35 32 30 29 28 27 27 26 25 24 22 21 21 20 20 19 20 19 18 17 17 17 17 16 15 14 14 15 15 15 14 15 15 14 14 13 13 12 7 3 4 8 7 10 8 5 5 6 9 10 8 10 11 11 13 14 17 19 nan nan nan nan
44 42 42 43 43 46 43 42 42 42 42 40 41 42 42 42 41 41 41 41 40 38 36 33 31 30 28 28 27 26 27 26 24 23 21 18 18 19 19 20 18 18 17 15 15 16 15 15 16 17 15 16 16 16 15 15 15 14 13 12 10 6 2 4 7 10 11 5 6 6 6 9 8 9 10 11 13 12 11 14 nan nan nan nan nan
42 42 42 41 42 44 42 41 42 41 41 40 42 43 42 42 41 39 39 40 38 37 34 31 30 29 28 27 26 27 28 25 25 24 21 19 17 17 21 21 20 20 19 17 17 18 18 15 15 17 18 17 17 17 17 16 16 14 13 11 7 3 3 5 7 9 6 8 7 7 11 11 9 9 11 11 13 13 18 22 19 20 nan nan nan
39 38 39 40 44 43 43 41 41 40 39 40 43 43 42 41 39 38 37 37 36 35 32 30 30 29 27 26 26 27 27 25 23 26 20 20 18 18 19 22 21 20 21 21 20 20 20 18 18 18 18 18 19 18 18 17 16 14 12 9 5 2 3 4 6 5 6 7 7 4 7 12 8 8 10 13 14 16 17 17 19 20 nan nan nan
33 28 35 38 43 44 44 42 40 39 39 41 43 42 40 38 37 35 34 33 33 33 31 30 31 30 27 26 25 28 27 27 22 22 23 20 20 19 19 23 23 22 21 22 22 22 21 21 21 20 20 19 18 18 18 16 16 14 11 9 5 3 2 3 3 3 8 11 5 6 9 9 9 8 13 13 13 13 17 18 19 20 nan nan nan
33 32 37 39 41 42 43 42 40 39 39 41 41 40 39 37 34 33 31 32 32 31 30 31 30 29 27 26 25 28 27 28 28 24 25 22 18 22 18 20 23 22 21 21 22 23 23 23 22 22 21 18 18 18 17 16 15 13 11 8 5 2 1 4 1 6 11 10 8 7 8 7 8 10 11 13 15 17 16 18 18 19 nan nan nan
33 35 38 39 38 42 42 40 40 40 40 40 39 38 36 34 31 30 30 31 31 31 30 32 32 30 30 26 27 27 29 28 29 25 27 25 20 24 22 20 18 21 21 21 22 23 23 23 23 21 19 18 17 17 17 16 14 13 12 8 4 2 3 3 5 14 11 13 11 10 10 8 8 9 12 12 13 14 17 17 18 18 nan nan nan
35 35 37 38 40 41 40 37 39 39 40 39 36 34 33 31 30 30 32 33 33 32 32 33 34 32 30 30 28 28 28 29 28 27 28 27 24 25 25 22 20 21 22 21 22 23 24 23 22 20 19 19 17 17 17 16 15 15 13 10 4 3 4 5 7 15 14 11 11 14 12 9 8 10 10 12 13 13 15 16 17 18 18 nan nan
35 34 37 37 37 38 35 37 39 40 38 35 32 31 29 28 30 32 34 34 34 34 34 34 36 34 32 31 30 28 28 28 27 28 28 25 25 25 24 23 22 22 22 22 21 20 22 23 23 20 18 19 18 19 20 20 19 17 15 13 7 5 5 6 8 16 14 15 13 15 14 11 8 12 10 12 14 14 15 16 16 18 18 nan nan
35 36 39 40 39 37 36 37 39 39 35 32 30 29 28 29 30 29 34 37 36 35 35 35 37 35 33 32 31 29 28 27 27 30 28 26 25 25 23 22 22 22 23 23 23 22 22 22 21 20 18 18 19 21 22 22 21 19 17 14 11 9 6 6 11 18 18 16 13 15 14 13 12 12 12 12 13 14 15 15 17 17 18 18 nan
34 32 36 39 35 31 31 33 34 30 30 32 31 32 33 32 28 25 29 34 33 35 38 38 37 36 33 33 32 29 27 26 27 27 27 27 27 26 24 22 22 24 25 26 24 22 20 20 20 19 18 18 20 22 22 22 22 20 17 16 13 10 9 12 17 20 20 18 18 21 17 16 12 14 13 13 13 13 15 15 15 16 16 17 nan
29 28 33 33 30 30 29 28 25 26 30 28 29 31 34 33 29 27 30 31 33 34 37 39 38 35 34 34 31 27 25 25 26 26 27 29 28 28 26 25 25 25 26 26 25 23 21 19 19 19 17 17 20 21 21 22 22 19 18 17 13 12 14 12 17 21 22 21 20 21 20 17 16 16 16 14 13 14 14 15 16 16 15 16 17
29 28 33 30 31 26 24 23 26 30 27 28 32 32 31 32 30 29 29 29 33 33 33 35 37 36 34 32 27 23 23 23 24 24 27 29 28 26 27 26 25 25 25 25 24 23 22 19 18 18 17 15 19 21 21 20 20 20 18 17 14 14 14 16 24 24 22 23 24 23 24 17 14 18 17 16 16 14 15 14 14 15 15 16 16
27 29 32 33 34 32 28 29 32 32 27 31 31 28 25 25 24 24 26 28 31 33 32 34 36 34 29 25 20 18 20 20 20 22 26 24 23 26 25 26 25 25 25 24 24 22 21 20 18 18 17 16 16 19 20 19 19 20 20 17 15 16 21 25 22 22 23 24 25 26 26 17 16 19 19 19 17 16 15 13 14 16 16 16 16
29 30 32 32 34 33 34 35 33 32 29 28 24 22 22 20 22 23 24 25 27 28 27 27 29 25 21 19 17 18 18 18 19 22 19 22 23 22 23 23 23 23 23 24 24 22 21 20 19 18 17 17 15 15 18 18 18 19 20 17 17 20 22 23 23 25 26 25 26 28 29 23 19 22 21 20 19 17 16 15 16 16 17 17 17
29 29 29 32 32 32 32 32 32 33 32 30 23 23 25 20 22 22 20 20 19 17 16 19 20 19 17 18 18 18 17 17 16 17 18 21 21 20 22 22 21 21 22 22 23 21 20 19 18 17 16 16 16 16 18 20 19 18 20 19 20 21 24 23 24 27 28 26 27 31 31 27 21 23 23 21 21 20 17 18 18 18 18 18 17
31 30 30 28 28 29 31 34 32 32 31 26 28 24 22 20 21 20 18 17 16 12 13 16 17 16 18 18 19 16 16 15 14 20 21 20 19 21 22 22 21 21 21 20 21 20 19 17 15 15 16 17 17 17 18 20 20 20 20 21 22 24 24 22 24 28 29 28 29 33 31 28 26 25 25 25 23 21 21 22 21 21 20 19 18
31 31 29 28 26 25 29 32 33 33 30 31 28 24 23 22 23 21 20 17 14 11 14 14 13 10 18 12 20 17 13 14 12 17 16 15 16 17 18 16 16 17 19 16 17 18 16 17 16 14 16 17 16 19 19 20 19 20 22 23 25 24 25 26 28 27 28 28 30 34 32 30 28 26 26 26 26 24 23 26 23 23 21 19 18
32 29 30 29 26 26 27 30 29 33 34 32 26 22 25 23 23 20 19 14 10 12 13 13 10 9 11 15 20 16 13 14 13 15 14 11 10 14 15 12 14 14 14 14 14 16 13 14 14 14 14 20 19 19 18 19 19 20 23 25 25 24 24 28 29 30 29 29 30 33 33 32 31 28 27 28 28 26 27 28 27 24 21 19 19
29 29 29 28 29 28 28 29 30 26 30 28 24 23 24 25 24 18 14 11 12 14 13 12 14 9 10 17 18 14 13 15 15 13 16 11 13 12 13 10 10 10 15 13 14 15 13 10 13 12 17 19 18 19 19 19 18 21 23 23 23 24 26 30 29 30 31 30 30 33 33 33 33 30 27 28 28 28 27 26 26 25 23 22 21
28 29 29 28 28 29 29 28 30 32 26 24 27 27 25 26 23 17 12 14 15 14 11 12 16 11 11 16 16 16 15 15 13 14 15 12 14 16 14 10 8 9 11 14 14 16 15 13 11 14 14 17 17 16 19 22 20 20 23 23 23 25 24 26 31 30 30 29 28 30 32 32 32 32 30 28 28 28 29 28 28 26 25 23 23
29 28 29 28 28 28 28 31 32 30 30 27 29 27 24 22 20 15 14 15 13 13 11 12 12 14 16 19 18 17 12 11 12 10 14 11 14 17 13 11 12 12 10 13 15 17 17 16 15 15 16 15 15 14 18 22 21 22 20 23 21 25 23 28 24 25 28 27 27 28 29 30 31 30 30 29 29 28 27 29 28 27 27 24 26
26 26 27 27 29 29 30 29 30 33 31 33 28 29 26 21 16 13 13 11 10 12 12 12 13 15 18 19 16 12 9 8 7 6 13 15 12 18 10 11 10 7 9 10 15 16 17 17 16 14 19 15 16 15 17 20 20 20 21 23 27 26 23 25 21 26 26 26 27 25 27 29 30 30 30 30 30 30 29 29 29 29 27 26 26
26 25 26 28 27 29 29 28 29 29 30 32 30 29 25 18 15 12 12 11 12 12 11 12 13 16 19 18 14 7 6 9 11 10 10 11 12 15 11 12 10 9 4 11 14 15 17 15 15 14 16 16 15 16 14 19 19 21 19 22 22 22 20 18 25 27 24 27 26 24 25 28 29 30 30 29 30 29 29 29 29 30 29 27 28
23 25 26 28 26 24 25 26 27 25 27 30 29 25 18 17 15 13 14 15 16 14 12 12 12 15 18 14 9 6 5 6 9 9 9 10 10 9 13 13 11 5 4 6 16 16 15 14 16 16 16 15 15 14 16 16 17 19 18 19 22 23 24 27 26 27 25 25 24 25 25 25 28 30 29 29 28 29 29 29 30 30 31 30 29
20 23 25 24 21 18 21 22 23 23 23 25 23 19 18 17 17 16 18 18 17 17 16 16 17 18 16 10 6 4 7 5 9 8 9 7 7 9 13 12 11 7 4 9 18 17 15 14 14 16 14 16 17 17 18 14 17 18 18 22 19 22 25 26 28 23 25 23 23 28 26 22 25 27 28 29 30 30 30 30 30 29 30 29 31
22 20 22 18 16 16 17 17 19 20 19 19 19 18 19 21 18 18 20 19 19 19 20 19 17 15 13 8 3 2 4 7 11 8 7 8 7 7 9 9 13 8 8 12 11 16 16 13 13 13 14 14 15 16 15 15 20 20 23 20 19 20 29 23 19 20 24 23 21 25 26 23 23 24 25 28 30 31 32 32 32 32 30 30 28
19 17 16 18 18 18 16 15 17 17 15 18 18 21 21 20 19 19 18 15 16 16 15 14 9 7 8 9 4 9 6 6 7 7 6 5 4 5 7 12 10 8 11 12 8 12 14 12 11 12 10 12 13 14 14 14 17 14 14 17 10 19 22 23 17 19 23 23 22 25 25 25 24 24 25 25 27 30 32 33 35 33 32 29 28
19 17 17 20 20 19 17 17 18 16 17 18 20 21 19 19 18 16 13 12 11 11 9 7 8 8 7 5 9 8 9 5 6 7 7 2 7 7 11 15 9 2 10 13 8 11 12 11 10 11 10 11 14 16 12 13 15 12 11 12 10 15 18 19 20 17 25 22 21 24 25 24 26 27 27 27 27 30 32 34 33 33 31 30 28
21 22 24 24 22 21 18 17 19 21 20 15 20 23 19 18 13 10 10 10 7 6 5 5 7 6 4 3 10 6 6 6 4 10 11 2 7 8 16 14 10 5 10 13 11 8 14 11 10 9 10 12 14 17 16 12 13 13 12 13 13 15 14 15 16 17 18 18 18 22 22 24 26 29 25 28 29 31 34 33 29 27 28 30 29
22 24 27 25 22 22 18 16 19 21 15 16 15 12 14 15 7 7 10 11 4 4 5 5 4 2 3 3 8 10 6 6 10 9 11 4 8 10 13 16 13 6 13 12 12 11 12 11 11 10 11 13 13 15 13 14 11 13 14 15 14 11 14 14 14 12 14 14 14 14 16 17 18 20 21 20 24 27 31 23 17 23 28 27 27
23 26 28 25 22 21 18 17 23 21 13 15 16 16 14 15 11 11 8 7 9 5 8 7 6 6 8 9 12 15 11 8 10 10 14 12 7 13 14 14 16 4 10 15 13 11 12 12 12 10 11 10 15 13 14 13 11 10 17 14 13 9 12 11 9 11 12 11 10 11 10 12 11 16 16 16 18 30 27 22 22 24 24 23 24
27 30 29 22 20 19 16 21 21 21 18 19 18 19 19 11 10 9 10 11 14 15 14 13 13 13 13 13 13 16 16 11 10 10 13 13 8 13 18 19 14 9 11 13 13 10 12 11 13 11 12 16 14 14 13 13 13 18 15 15 13 11 9 10 9 10 11 11 11 10 12 13 11 11 11 16 18 28 26 22 25 22 24 25 23
28 26 17 20 17 16 15 20 21 22 21 21 19 21 12 6 11 13 15 17 18 18 18 18 17 17 16 16 16 16 19 14 10 17 12 11 12 14 18 15 14 10 10 14 15 13 11 12 12 12 13 13 16 15 13 14 14 16 16 16 13 12 11 9 9 10 10 12 12 13 13 14 15 14 13 13 13 25 25 20 23 24 22 27 27
22 15 16 19 19 16 12 19 24 25 23 19 16 7 8 16 16 19 20 nan nan nan 21 21 20 19 18 18 18 17 16 18 10 16 12 13 12 15 16 15 18 9 12 16 15 14 15 12 11 12 12 12 14 18 15 18 15 17 17 16 14 12 12 8 11 10 10 13 14 14 16 nan nan nan 14 14 15 16 nan 26 17 21 21 28 27
21 15 15 17 18 17 15 23 28 24 20 15 13 15 19 23 25 27 24 24 23 22 22 22 21 20 19 19 19 17 16 14 14 18 12 9 13 16 16 17 18 16 14 17 17 15 15 10 11 11 13 13 14 16 16 16 18 19 17 18 16 14 14 12 10 11 12 12 13 16 nan nan nan nan nan nan 17 16 16 17 19 18 24 27 27
14 14 21 19 19 21 22 25 21 14 12 16 24 19 25 26 28 28 26 24 22 22 21 20 21 20 21 19 19 18 16 15 14 15 11 16 13 14 16 14 16 22 10 16 19 18 16 13 13 13 13 13 15 17 15 14 18 26 20 16 19 15 17 14 14 14 15 nan nan nan nan nan nan nan nan nan nan 18 18 16 19 17 20 25 24
15 16 17 18 12 17 13 21 16 13 13 15 19 21 22 24 24 23 nan 21 18 18 17 18 19 21 21 19 19 18 17 16 14 14 15 15 13 11 16 10 17 15 17 12 17 17 16 15 15 13 14 9 17 19 16 15 17 23 21 21 20 17 15 16 15 17 16 nan nan nan nan nan nan nan nan nan 21 nan 20 20 18 17 22 28 19
21 20 15 13 13 14 17 20 15 17 21 18 15 18 20 21 20 17 16 14 14 14 15 15 15 15 20 19 18 17 18 17 16 16 17 15 15 14 14 16 17 16 22 17 12 15 16 16 15 14 13 16 18 19 16 18 15 23 20 19 19 19 20 19 19 22 18 nan nan nan nan nan nan nan nan nan nan nan nan nan nan 21 21 24 22
23 22 20 17 18 18 20 20 22 22 19 19 14 19 19 17 16 14 13 13 15 16 16 16 17 nan 18 17 18 17 16 16 15 14 14 13 13 12 13 13 15 16 18 19 20 18 17 18 16 18 18 18 18 19 19 19 19 19 26 19 18 17 19 21 21 25 nan nan nan nan nan nan nan nan nan nan nan nan nan nan nan nan 24 25 26
25 21 19 20 23 23 21 23 25 21 18 9 17 20 17 15 12 14 14 14 15 15 15 16 nan nan nan nan nan nan 16 18 17 nan 16 nan nan nan nan nan nan nan nan nan 19 18 nan 19 18 20 21 20 20 21 19 22 19 23 22 24 27 18 21 21 17 23 20 nan nan nan nan nan nan nan nan nan nan nan nan nan nan nan nan nan nan
24 20 18 19 21 23 25 21 25 22 20 19 19 18 16 14 13 12 13 15 nan 13 nan nan nan nan nan nan nan nan 18 18 18 18 17 nan nan 17 16 nan nan nan nan nan 21 22 21 22 21 22 23 21 22 23 21 21 20 23 23 22 27 26 24 22 20 22 15 nan nan nan nan nan nan nan nan nan nan nan nan nan nan nan nan nan nan
25 24 20 16 18 20 22 24 23 22 21 22 18 15 14 12 11 11 12 nan nan nan nan 17 19 nan nan nan nan nan nan 15 16 17 nan nan 18 18 18 17 nan nan nan nan nan 22 23 23 23 23 23 23 23 23 21 21 20 23 22 24 23 29 27 21 21 19 nan nan nan nan nan nan nan nan nan nan nan nan nan nan nan nan nan nan nan
24 23 17 16 20 19 20 24 18 17 22 24 19 16 14 10 10 12 11 12 12 12 nan nan nan nan nan nan nan nan nan 15 16 16 nan nan 18 19 nan nan nan nan nan nan nan 21 22 23 24 24 24 23 22 23 22 23 19 24 20 25 21 24 23 24 26 nan nan nan nan nan nan nan nan nan nan nan nan nan nan nan nan nan nan nan nan
Wind_Direction
292 295 297 298 299 299 298 297 298 299 302 303 303 301 297 297 300 304 308 310 311 312 314 314 312 309 305 303 304 306 307 307 306 309 312 315 316 314 312 311 310 309 308 309 306 301 300 298 293 284 278 274 270 267 266 266 261 262 276 288 290 280 282 273 269 272 278 271 262 258 254 256 254 245 223 nan 219 214 nan nan nan nan nan nan nan
296 295 297 298 298 299 300 300 299 300 302 302 301 297 298 297 300 304 307 310 311 312 313 313 311 309 307 305 306 306 306 305 305 307 310 312 312 311 311 310 309 310 308 309 308 301 297 294 289 284 279 275 275 270 269 267 265 266 272 278 282 286 285 278 270 268 268 272 270 262 253 249 247 nan nan nan 223 219 nan nan nan nan nan nan nan
293 294 297 297 298 299 300 300 298 299 301 301 299 300 298 298 302 304 306 308 309 310 310 310 309 308 307 307 306 306 305 303 304 307 309 309 310 310 311 308 307 310 311 310 309 305 301 295 289 284 283 278 275 272 273 266 266 263 271 278 278 277 276 279 288 292 291 293 291 276 nan nan 255 247 236 227 226 226 nan nan nan nan nan nan nan
292 294 296 295 298 299 300 298 298 299 301 301 301 301 300 299 302 304 305 307 307 305 306 308 307 307 307 306 306 306 304 303 305 307 308 309 312 317 314 309 312 314 313 307 304 305 302 294 288 283 279 277 274 276 275 264 270 264 271 276 282 280 289 299 311 310 306 306 307 312 282 253 245 239 241 234 237 237 nan nan nan nan nan nan nan
293 294 294 297 300 298 298 297 299 300 300 301 301 302 301 302 303 304 305 304 303 303 305 305 306 306 306 306 306 307 305 304 306 307 308 311 315 317 315 315 315 314 312 307 306 306 301 293 286 282 277 277 275 272 272 274 269 269 269 274 280 291 294 321 342 335 346 338 356 42 253 262 251 242 243 241 240 243 237 nan nan nan nan nan nan
290 295 296 298 299 298 297 297 299 301 301 302 303 302 299 300 301 302 301 299 300 302 304 305 306 305 304 304 306 308 306 306 306 306 310 312 316 316 316 316 315 316 315 311 310 307 304 296 288 279 275 274 273 269 271 277 278 274 276 274 279 286 311 348 14 32 20 3 20 45 263 259 251 250 246 242 235 243 235 226 nan nan nan nan nan
292 295 298 299 297 299 298 299 300 301 302 302 301 298 297 298 297 298 299 298 300 301 303 305 305 302 301 303 306 308 306 305 306 308 311 313 314 315 315 315 312 312 311 312 314 309 304 298 287 278 271 268 267 270 273 276 273 273 275 277 279 289 320 10 52 57 55 61 37 308 261 255 256 245 245 250 247 250 243 230 nan nan nan nan nan
294 297 300 299 297 299 300 302 302 301 301 299 297 296 295 296 297 298 298 298 298 300 303 304 302 299 299 301 306 308 305 303 305 308 312 313 314 313 313 313 313 313 312 310 307 300 303 299 289 278 266 263 264 267 270 268 268 269 271 277 271 286 344 24 60 72 66 69 253 262 259 262 261 252 244 236 220 223 238 238 227 nan nan nan nan
298 301 300 298 299 305 304 303 302 302 301 297 296 295 294 294 296 297 296 296 297 299 300 300 298 297 299 301 304 304 300 302 306 309 306 303 300 305 307 307 307 307 306 302 294 303 299 291 290 277 268 262 263 261 262 262 261 264 268 275 273 282 13 63 57 68 76 28 309 260 211 287 272 261 248 237 229 230 249 252 nan nan nan nan nan
300 300 300 301 305 306 304 302 301 301 300 297 297 296 294 294 296 295 295 295 296 297 297 297 295 295 297 300 300 299 299 304 309 310 302 296 294 292 304 303 305 305 301 295 290 286 285 285 283 277 268 264 262 257 254 253 252 255 263 269 272 304 7 90 107 98 104 236 227 248 219 226 259 249 237 236 232 224 237 232 228 223 nan nan nan
296 297 303 302 305 302 300 300 300 300 301 298 298 297 296 295 294 294 294 295 294 293 292 289 288 290 295 295 295 295 296 300 305 303 299 297 298 291 294 302 300 303 301 297 293 289 284 281 281 277 273 267 261 256 250 248 249 251 253 258 258 254 141 108 114 94 264 265 268 292 266 254 244 248 259 246 232 231 231 237 237 233 nan nan nan
275 283 297 299 299 298 298 300 300 301 301 300 299 297 296 293 290 290 290 289 286 286 284 280 281 286 291 293 290 287 287 289 284 302 302 298 298 292 297 300 302 303 301 299 293 290 287 285 284 283 275 269 263 255 248 247 248 247 250 247 248 232 137 147 126 245 252 249 254 243 244 251 257 257 254 250 249 242 238 239 239 238 nan nan nan
288 286 294 293 295 296 298 301 302 301 300 299 298 296 295 292 290 292 288 284 281 280 278 273 274 279 284 286 284 284 287 293 299 300 295 296 299 293 291 294 302 302 301 300 295 291 288 284 284 283 277 273 264 255 249 246 247 244 244 244 227 213 118 50 38 262 256 273 281 262 259 253 254 261 256 248 245 245 240 238 237 235 nan nan nan
281 286 290 294 293 298 299 302 303 302 302 300 297 295 295 292 292 288 279 275 276 275 271 266 266 269 278 280 278 280 285 291 292 293 289 296 301 297 293 290 296 301 298 297 292 286 282 283 282 281 279 272 260 254 254 252 248 248 248 245 238 155 132 135 40 263 267 263 252 262 259 248 244 246 247 249 245 240 240 238 237 233 nan nan nan
288 292 294 295 298 303 303 302 300 297 300 299 295 294 293 290 285 277 270 269 271 269 266 263 264 269 274 280 278 277 284 292 293 296 291 295 304 298 295 300 302 298 296 294 294 292 288 280 274 272 268 265 259 254 250 251 248 247 252 254 249 210 169 215 235 260 268 272 272 266 267 264 258 250 243 246 246 244 242 238 236 235 233 nan nan
295 298 297 293 296 300 301 301 297 297 298 296 294 292 287 282 273 267 263 263 267 269 265 261 261 263 271 278 276 273 280 289 291 287 290 298 304 301 297 300 301 297 296 295 292 288 279 274 271 273 268 261 258 249 242 237 237 241 247 255 244 215 209 209 237 269 266 269 265 264 267 261 240 257 250 245 244 242 240 238 238 238 235 nan nan
296 297 297 298 301 304 304 302 298 300 296 296 296 292 287 283 275 263 266 266 269 273 272 262 257 260 267 272 269 269 278 284 286 290 297 303 305 304 300 298 302 299 297 292 289 287 284 278 274 274 272 263 256 249 239 233 231 232 241 245 237 223 216 219 247 254 251 248 260 270 265 267 254 258 254 249 248 245 241 238 241 240 234 227 nan
287 283 287 298 297 300 301 295 296 299 298 296 294 292 286 278 269 266 266 269 275 278 274 261 254 257 265 266 263 268 276 280 284 290 297 302 303 304 303 298 299 298 295 293 289 288 287 280 275 272 272 270 261 254 243 234 230 231 234 236 231 216 215 213 251 256 255 257 257 256 261 261 267 267 260 252 248 248 246 242 240 237 235 233 nan
273 273 277 292 297 304 303 290 292 300 301 299 299 291 287 282 282 289 284 277 277 279 276 265 255 257 264 261 261 267 273 277 282 287 294 302 304 302 298 297 297 296 292 289 285 282 281 280 278 275 273 268 265 260 250 239 233 231 236 234 227 217 208 222 257 258 259 259 252 260 261 249 266 269 263 259 255 253 254 249 243 243 239 236 230
274 280 279 286 298 297 289 280 298 307 298 297 300 296 293 291 291 291 285 281 284 279 278 270 257 255 261 260 261 267 277 281 285 291 300 303 310 305 301 297 297 293 289 285 282 278 276 276 278 280 277 271 266 263 259 248 238 237 235 240 229 222 233 243 245 255 254 255 258 260 258 246 252 266 267 261 256 256 254 249 248 242 242 239 234
272 280 286 289 299 305 295 290 302 304 302 300 297 295 295 296 293 293 290 289 285 279 278 269 253 250 256 259 261 272 277 283 292 293 300 304 299 300 304 300 297 295 292 289 285 282 277 276 277 278 279 274 265 265 263 256 248 238 241 240 232 233 241 246 256 256 259 259 261 264 257 246 259 262 263 268 267 256 255 256 251 247 248 245 237
280 281 286 291 297 300 301 295 295 300 301 296 288 290 298 298 296 298 294 291 285 280 274 256 248 248 259 263 266 274 286 283 285 293 298 302 304 304 303 300 301 301 297 294 288 285 282 280 277 280 282 279 278 267 266 262 252 249 247 244 239 243 249 250 250 258 256 255 260 264 260 249 260 261 258 259 264 258 255 256 250 251 251 245 240
281 281 284 295 299 297 299 297 300 296 294 294 291 286 298 287 297 299 297 301 298 286 265 258 259 273 274 266 259 261 268 275 280 294 302 296 296 302 300 301 304 303 299 293 291 288 285 283 282 280 279 278 272 268 260 259 256 260 252 246 240 243 252 255 256 253 257 257 257 262 261 252 258 267 262 260 262 266 265 260 263 258 255 250 246
285 285 288 290 300 300 302 295 299 302 297 292 290 294 291 288 297 297 295 295 293 280 272 279 279 279 272 258 269 269 266 268 283 293 299 295 297 300 302 304 306 305 300 296 294 294 293 287 281 277 268 267 269 266 264 256 253 252 251 247 244 247 253 256 256 257 256 257 260 263 261 257 260 269 266 263 261 262 264 267 264 265 259 255 251
284 287 288 292 293 293 296 292 295 301 300 294 294 293 289 289 294 290 290 291 283 282 288 284 263 271 272 267 271 267 272 282 293 294 291 286 302 303 305 310 307 304 313 297 296 289 291 286 277 271 265 269 268 262 264 263 252 250 247 244 244 248 247 249 249 258 260 256 261 263 262 259 258 267 271 267 262 261 263 270 269 265 263 259 256
289 290 291 293 291 292 292 290 292 297 296 294 291 288 282 290 297 288 288 279 260 271 281 273 249 240 266 266 267 279 282 286 282 279 272 274 281 305 312 306 314 310 315 303 298 293 293 286 287 275 269 262 256 257 260 261 258 252 250 247 248 249 250 252 252 249 260 261 263 267 265 262 262 264 268 270 267 264 260 266 268 266 265 263 260
290 293 294 292 294 294 294 292 287 288 300 294 289 289 293 298 298 290 279 259 253 264 259 255 257 244 249 248 265 282 288 292 287 287 291 316 314 302 294 298 306 302 312 308 309 306 297 294 274 283 265 263 263 264 261 262 256 255 253 257 253 255 251 254 257 258 260 264 268 271 271 269 266 265 265 272 271 269 268 272 264 262 261 261 266
294 297 294 295 296 296 298 292 287 294 296 300 298 297 287 296 296 290 271 264 255 256 241 243 253 252 249 271 268 259 268 277 280 297 309 312 309 301 286 296 287 330 317 312 314 304 309 289 295 279 275 267 265 263 268 265 257 250 249 252 258 257 256 257 252 256 262 263 268 271 273 273 272 266 264 271 271 271 270 265 264 263 262 262 270
301 302 298 296 297 295 298 299 295 288 291 296 293 291 292 295 288 274 256 249 250 248 239 247 240 243 251 259 257 256 269 264 272 286 282 285 283 280 290 305 317 315 330 327 315 303 292 295 289 285 276 274 269 266 266 268 261 260 263 256 258 263 258 257 264 260 262 264 265 269 273 272 271 270 267 266 271 270 269 270 268 269 267 266 273
304 301 301 300 299 299 302 296 294 295 291 287 289 295 293 284 275 265 252 259 267 264 260 255 241 239 249 249 243 249 254 262 256 274 286 287 276 288 304 293 279 291 306 301 292 283 276 274 283 287 286 287 281 275 269 272 269 265 263 262 247 237 244 250 255 262 259 261 261 266 271 270 268 267 264 265 265 268 268 270 272 268 271 270 270
304 301 298 302 301 305 301 302 297 293 290 284 284 291 288 267 252 245 254 265 270 266 254 249 235 233 244 238 232 238 250 257 256 216 249 263 273 267 282 276 268 250 212 288 291 283 275 275 280 283 281 278 278 277 281 275 279 271 261 269 278 281 275 265 262 258 264 261 262 265 266 268 268 267 266 264 266 267 265 268 272 274 272 270 267
308 303 298 290 299 311 312 309 299 293 289 284 281 277 262 250 254 256 267 269 263 258 251 240 241 242 244 244 243 245 226 233 263 265 244 243 246 265 274 273 265 239 262 302 298 292 287 281 275 269 269 273 273 275 270 275 277 280 285 273 271 269 269 260 261 259 255 263 269 265 265 265 267 268 267 267 265 264 267 266 268 272 269 267 269
305 306 295 300 310 315 313 309 300 296 293 286 278 265 256 262 269 270 269 268 265 259 251 244 244 246 247 257 248 220 208 195 242 235 248 255 251 261 260 280 281 281 334 315 295 297 290 281 281 276 280 276 276 277 278 275 266 269 272 275 274 277 265 258 248 250 260 255 256 262 253 263 267 272 275 274 269 267 265 267 268 266 266 263 265
307 305 302 310 314 310 309 311 312 306 301 285 270 262 262 268 268 269 269 268 261 254 246 239 237 239 256 267 252 268 271 217 243 229 228 246 247 269 283 282 289 317 287 269 285 299 293 291 288 287 281 286 283 282 281 281 259 247 250 234 239 253 259 259 266 265 256 263 258 263 271 264 266 267 272 278 278 275 273 268 264 261 259 257 255
296 303 310 313 311 305 304 314 321 319 304 287 277 271 270 257 260 260 262 260 253 244 235 231 237 261 263 278 337 287 257 253 258 258 212 248 279 276 292 264 263 285 289 270 258 275 287 288 293 288 291 290 289 271 258 264 273 269 259 265 225 273 273 270 281 281 274 260 266 261 263 269 268 269 268 269 277 280 277 272 269 264 261 259 259
288 291 298 304 302 298 306 309 317 314 300 274 259 244 233 224 219 241 240 246 251 244 233 228 239 249 250 246 263 244 244 204 303 300 248 298 338 315 278 258 270 266 286 285 306 271 276 274 276 278 293 297 290 292 287 281 283 290 291 281 281 275 282 282 274 273 280 280 272 268 266 264 262 262 266 267 268 275 278 278 277 274 268 263 262
279 285 290 293 293 295 303 306 314 297 281 259 241 234 222 211 191 194 219 233 231 203 221 243 243 230 232 218 258 260 314 343 277 289 298 305 249 245 272 285 283 262 258 261 239 257 269 264 261 276 293 298 299 296 298 301 289 289 294 287 287 277 262 263 268 266 274 276 276 278 273 268 271 267 262 263 267 265 267 257 269 279 274 267 261
271 276 279 285 289 295 302 297 298 269 247 247 244 228 236 252 247 217 206 233 249 154 230 247 220 210 302 253 277 279 251 261 251 234 265 261 263 269 261 273 272 243 254 267 259 247 259 256 265 272 294 300 294 290 297 295 295 295 282 272 271 272 275 277 276 281 279 278 279 275 273 273 274 279 271 273 266 261 269 267 275 268 266 264 263
266 267 273 276 281 286 292 286 270 262 256 252 241 238 234 226 231 253 257 260 281 304 289 290 298 268 250 257 264 257 244 226 262 271 239 238 240 265 273 267 264 259 250 261 265 266 263 259 273 282 279 292 261 271 275 278 283 265 272 264 245 261 266 261 278 273 273 278 276 277 283 284 285 287 293 284 285 278 281 287 277 275 277 281 271
258 254 257 266 278 284 289 279 270 269 263 261 246 231 228 211 229 251 275 275 271 269 263 265 263 264 260 264 263 273 263 240 266 271 271 247 236 261 258 258 269 272 267 273 282 282 278 269 269 269 284 277 274 270 273 281 274 267 265 267 269 237 271 272 267 278 286 288 286 293 294 302 293 282 293 285 286 293 284 279 280 280 275 272 264
256 263 282 296 299 296 291 274 270 265 255 246 231 222 212 236 246 250 256 262 264 269 267 263 265 260 268 266 269 266 282 281 265 262 272 287 263 260 268 259 262 257 270 276 277 280 285 275 267 272 276 275 283 278 278 278 280 270 268 270 255 254 264 270 268 271 277 282 288 287 279 276 276 282 280 293 296 292 295 275 273 273 267 269 266
282 304 311 305 298 290 279 267 267 250 235 223 211 217 258 250 253 256 262 nan nan nan 267 264 261 267 267 267 266 269 272 272 258 273 259 267 264 264 260 279 291 298 273 273 278 282 280 274 271 268 267 271 259 277 295 296 297 284 280 271 266 265 270 261 267 269 283 289 289 289 287 nan nan nan 279 288 291 280 nan 282 262 258 262 264 263
316 320 286 273 261 255 241 242 243 231 206 222 250 249 249 252 250 253 260 264 257 256 260 260 262 261 258 261 260 262 267 266 274 271 269 268 264 257 254 249 261 266 268 277 280 285 276 274 277 272 273 269 265 260 269 271 274 271 275 284 289 284 278 269 270 275 271 270 279 285 nan nan nan nan nan nan 288 286 280 278 268 270 271 268 266
287 273 257 246 236 223 220 245 251 244 227 219 240 244 249 252 253 255 251 254 258 255 255 255 257 259 257 249 255 258 256 260 267 270 251 259 251 254 255 255 258 278 279 280 280 279 279 283 285 283 272 268 273 270 264 271 262 286 283 280 284 283 286 290 287 280 281 nan nan nan nan nan nan nan nan nan nan 284 287 279 269 257 264 271 267
281 278 260 250 253 261 244 263 259 254 249 233 246 250 257 261 263 259 nan 258 257 256 256 254 248 247 250 251 246 246 251 251 251 253 263 259 260 257 265 260 270 274 284 264 272 278 286 290 285 270 266 275 275 273 272 267 278 270 275 283 282 288 278 283 291 289 291 nan nan nan nan nan nan nan nan nan 285 nan 281 280 277 267 253 265 274
269 267 254 247 253 261 263 268 262 255 247 235 246 256 261 264 261 257 253 251 251 255 254 254 256 253 249 244 249 248 244 242 238 238 241 241 241 245 245 251 250 260 262 277 259 273 288 290 288 281 288 277 268 277 275 274 268 283 279 274 270 274 292 299 299 294 283 nan nan nan nan nan nan nan nan nan nan nan nan nan nan 276 265 272 282
265 271 262 254 267 266 275 273 270 252 228 214 242 257 259 256 252 248 244 241 244 240 239 240 239 nan 241 240 241 236 243 245 246 244 244 247 245 242 242 245 253 250 264 270 280 286 285 294 297 290 281 278 276 278 281 278 279 279 284 291 283 286 293 303 299 291 nan nan nan nan nan nan nan nan nan nan nan nan nan nan nan nan 272 268 269
291 286 279 275 266 258 254 271 272 265 242 238 266 264 260 255 249 240 238 244 246 249 243 237 nan nan nan nan nan nan 243 244 241 nan 247 nan nan nan nan nan nan nan nan nan 270 270 nan 273 275 277 280 280 281 272 277 279 282 282 283 293 294 292 289 283 285 288 283 nan nan nan nan nan nan nan nan nan nan nan nan nan nan nan nan nan nan
293 289 287 284 281 274 268 273 285 281 276 279 277 276 268 264 256 244 244 248 nan 261 nan nan nan nan nan nan nan nan 246 245 248 249 248 nan nan 251 250 nan nan nan nan nan 271 270 271 275 273 272 275 276 277 277 279 279 281 280 285 286 292 294 294 291 290 280 281 nan nan nan nan nan nan nan nan nan nan nan nan nan nan nan nan nan nan
277 266 262 278 288 280 274 285 274 260 270 282 270 272 273 265 257 253 255 nan nan nan nan 260 256 nan nan nan nan nan nan 253 253 249 nan nan 252 259 258 255 nan nan nan nan nan 269 272 273 273 270 272 273 273 277 281 281 281 280 289 289 289 294 296 287 284 281 nan nan nan nan nan nan nan nan nan nan nan nan nan nan nan nan nan nan nan
287 294 298 310 311 305 305 302 282 268 291 289 271 276 280 272 272 265 264 266 268 272 nan nan nan nan nan nan nan nan nan 262 261 255 nan nan 248 253 nan nan nan nan nan nan nan 269 271 272 272 273 273 273 276 276 277 275 283 283 285 288 287 282 286 292 292 nan nan nan nan nan nan nan nan nan nan nan nan nan nan nan nan nan nan nan nan